Вернуться в каталог

CZ-3B R/B

АктивенHEO
NORAD 62375·ROCKET BODY·🇨🇳 China

Запущен Dec 20, 2024 с Xichang Satellite Launch Center

Loading…

Ближайшие Пролёты (ближайшие 24 часа)

TLE

СвежийSource: Space-Track

Эпоха: Sep 13, 2026, 10:36 UTC

1 62375U 24246B   26256.44234089  .00412993  80028-6  14199-2 0  9994
2 62375  28.0158 280.8323 5671599 103.6767 322.5006  4.68702139 21468

Отслеживайте CZ-3B R/B в реальном времени с AllMySat

Download on the App Store